www.pogodaiklimat.ru

Погода и климат >> Архив погоды >> Германия >> Offenbach Wetterpark


ПОГОДА в Offenbach Wetterpark

  • Прогноз погоды в Offenbach Wetterpark
  • Монитор погоды в Offenbach Wetterpark
  • Климат города

АРХИВ ПОГОДЫ в Offenbach Wetterpark

Время (UTC), дата Ветер
(напр.,м/с)
 
Видим.   Явления Облачность Т
(С)
Тd
(С)
f
(%)
Тe
(С)
Тes
(С)
Комфортность P
(гПа)
Po
(гПа)
Тmin
(С)
Tmax
(С)
R
(мм)
R24
(мм)
S
(см)
07 11.08 З 2-4
{4}
2400 м морось {дождь} 10/10 30 м
[]
+14.0 +13.7 98 +13 +13 1015.9 1001.6
08 11.08 З 2-4
{5}
3500 м слаб. морось 8/8 60 м
[]
+14.4 +14.1 98 +14 +15 1015.5 1001.2
09 11.08 ЮЗ 2 4000 м морось {дождь} 10/10 120 м
[]
+14.6 +14.0 96 +14 +14 1016.3 1002.0 0.8
10 11.08 СЗ 2-5
{5}
4000 м морось {дождь} 8/8 30 м
[]
+15.2 +14.4 95 +15 +18 1015.9 1001.6
11 11.08 СЗ 2-4
{5}
11 км слаб. морось с дождем 8/8 270 м
[]
+15.8 +14.6 93 +16 +19 1015.9 1001.6
12 11.08 СЗ 5 30 км слаб. морось {дождь} 10/10 400 м
[]
+16.1 +14.2 88 +15 +15 1014.7 1000.5 0.8
13 11.08 СЗ 2-4
{6}
8000 м слаб. морось с дождем 10/10 480 м
[]
+16.1 +14.3 89 +16 +16 1015.8 1001.6
14 11.08 СЗ 3-5
{5}
11 км слаб. дождь 8/8 800 м
[]
+16.0 +14.3 90 +16 +17 1015.6 1001.4
15 11.08 СЗ 2 3900 м слаб. дождь {морось} 10/10 30 м
[]
+15.4 +14.3 93 +15 +15 1016.0 1001.7 2
16 11.08 СЗ 3-4
{5}
17 км слаб. морось с дождем 10/10 840 м
[]
+15.4 +14.2 93 +15 +15 1016.1 1001.8
17 11.08 СЗ 2-4
{5}
21 км слаб. морось {дождь} 8/8 1230 м
[]
+15.2 +13.7 91 +15 +15 1016.2 1001.9
18 11.08 З 2 5000 м слаб. дождь {морось} 10/10 570 м
[]
+14.8 +14.2 96 +14 +14 1016.3 1002.0 +13.8 +16.5 3
19 11.08 СЗ 2-3
{3}
7000 м слаб. дождь 10/0 2000 м
[]
+14.4 +13.3 93 +14 +14 1016.8 1002.5
20 11.08 ЮЗ 2-3
{3}
4600 м слаб. дождь 8/8 1500 м
[]
+14.1 +13.7 97 +13 +13 1017.3 1002.9
21 11.08 ЮЗ 2-4
{4}
3400 м слаб. дождь 8/8 1500 м
[]
+13.6 +13.3 98 +13 +13 1017.4 1003.0 6
22 11.08 ЮЗ 2-6
{6}
1800 м дождь 10/10 90 м
[]
+13.8 +13.5 98 +13 +13 1017.3 1002.9
23 11.08 З 4-7
{7}
3200 м дождь 8/8 180 м
[]
+13.8 +13.3 97 +12 +12 1017.1 1002.7
00 12.08 З 3-6
{8}
4600 м слаб. дождь 8/0 2000 м
[]
+13.7 +13.2 97 +12 +12 1017.1 1002.7 8
01 12.08 З 2-4
{6}
4200 м слаб. дождь 10/0 2000 м
[]
+13.6 +13.0 96 +13 +13 1017.6 1003.2
02 12.08 Ю 2-3
{3}
3500 м слаб. дождь 10/0 2000 м
[]
+13.5 +13.1 97 +13 +13 1017.4 1003.0
03 12.08 Ю 2 4600 м слаб. дождь 8/8 1000 м
[]
+13.4 +13.1 98 +13 +13 1017.4 1003.0 4
04 12.08 Ю 3-5
{5}
4800 м слаб. дождь {морось} 8/8 660 м
[]
+13.3 +12.9 97 +12 +12 1017.2 1002.8
05 12.08 ЮЗ 1-2
{4}
4100 м слаб. дождь {морось} 10/0 2000 м
[]
+13.1 +12.7 97 +13 +13 1017.1 1002.7
06 12.08 Ю 2 8000 м слаб. морось {дождь} 10/10 600 м
[]
+13.3 +12.8 97 +12 +12 1016.9 1002.5 +13.1 +14.8 0.9
07 12.08 штиль 0-1
{4}
11 км в посл. час дождь {морось} 10/10 210 м
[]
+13.9 +13.2 96 +13 +13 1017.3 1002.9
08 12.08 ЮЗ 2-6
{6}
9000 м 10/10 210 м
[]
+15.4 +14.2 93 +15 +15 1017.2 1002.9
09 12.08 ЮЗ 4 29 км {дождь, морось} 10/10 600 м
[]
+16.6 +13.0 79 +16 +16 1017.5 1003.3
10 12.08 ЮЗ 4-7
{8}
30 км в посл. час дождь {морось} 10/10 750 м
[]
+16.1 +12.1 77 +15 +15 1018.0 1003.7
11 12.08 ЮЗ 3-6
{8}
20 км слаб. дождь {морось} 10/10 660 м
[]
+16.3 +13.1 81 +16 +16 1018.2 1003.9
12 12.08 ЮЗ 3 35 км в посл. час дождь {морось} 10/10 450 м
[]
+16.7 +13.7 82 +16 +16 1018.1 1003.9 0.1
13 12.08 ЮЗ 4-7
{8}
30 км 10/10 630 м
[]
+16.8 +13.0 78 +16 +16 1018.1 1003.9
14 12.08 ЮЗ 3-6
{10}
35 км 8/8 540 м
[]
+16.6 +13.1 80 +16 +18 1018.2 1003.9
15 12.08 ЮЗ 4-9
{10}
26 км слаб. морось {дождь} 10/10 450 м
[]
+16.4 +13.4 82 +16 +16 1018.3 1004.0
16 12.08 ЮЗ 2-4
{7}
10 км слаб. морось с дождем 8/8 600 м
[]
+16.4 +14.1 86 +16 +17 1018.6 1004.3
17 12.08 ЮЗ 2-5
{6}
26 км в посл. час дождь {морось} 8/8 700 м
[]
+16.6 +14.6 88 +17 +17 1018.6 1004.3
18 12.08 ЮЗ 3 3200 м морось {дождь} 8/8 30 м
[]
+16.0 +15.1 94 +15 +15 1018.8 1004.5 +13.3 +17.3 0.1
19 12.08 Ю 2-5
{6}
18 км в посл. час дождь {морось} 10/10 660 м
[]
+15.8 +15.0 95 +16 +16 1019.1 1004.8
20 12.08 Ю 2-4
{4}
19 км в посл. час морось 10/10 750 м
[]
+15.8 +15.0 95 +16 +16 1019.4 1005.1
21 12.08 ЮЗ 3-4
{6}
26 км {дождь, морось} 10/10 930 м
[]
+16.0 +14.7 92 +15 +15 1019.4 1005.1 0.2
22 12.08 ЮЗ 3-5
{6}
29 км 10/10 800 м
[]
+16.2 +14.5 90 +16 +16 1019.4 1005.1
23 12.08 ЮЗ 2-5
{6}
26 км в посл. час морось 10/10 750 м
[]
+16.1 +14.5 90 +16 +16 1019.1 1004.8
00 13.08 ЮЗ 3-7
{7}
29 км {дождь, морось} 10/10 630 м
[]
+16.3 +14.5 89 +16 +16 1019.0 1004.7 0.2
01 13.08 ЮЗ 2-5
{6}
26 км 10/10 540 м
[]
+16.2 +14.4 89 +16 +16 1018.6 1004.3
02 13.08 ЮЗ 2-4
{5}
26 км 10/10 700 м
[]
+16.2 +14.5 90 +16 +16 1018.5 1004.2
03 13.08 ЮЗ 2-5
{6}
27 км в посл. час морось 10/10 630 м
[]
+16.3 +14.5 89 +16 +16 1018.5 1004.2
04 13.08 ЮЗ 2-5
{5}
21 км в посл. час дождь {морось} 10/10 700 м
[]
+15.9 +14.8 93 +16 +16 1018.5 1004.2
05 13.08 штиль 0-2
{6}
20 км 10/10 450 м
[]
+16.0 +14.8 93 +16 +16 1019.1 1004.8
06 13.08 ЮЗ 1 21 км в посл. час дождь {морось} 10/10 400 м
[]
+16.5 +15.1 91 +17 +17 1019.5 1005.2 +15.7 +16.5 0.2
07 13.08 ЮЗ 2-4
{4}
23 км в посл. час морось 10/10 240 м
[]
+17.1 +15.3 89 +17 +17 1019.7 1005.5
08 13.08 З 2-4
{4}
35 км в посл. час дождь {морось} 10/10 1300 м
[]
+18.1 +15.0 82 +19 +19 1020.0 1005.8
09 13.08 З 2 40 км {дождь, морось} 8/8 500 м
[]
+19.2 +14.4 74 +21 +23 комфорт 1020.2 1006.0
10 13.08 ЮЗ 2-5
{5}
45 км 8/8 570 м
[]
+20.9 +14.4 66 +24 +27 комфорт 1020.0 1005.9
11 13.08 З 2-4
{5}
60 км 8/8 840 м
[]
+20.4 +14.4 68 +24 +26 комфорт 1020.0 1005.9
12 13.08 ЮЗ 2-3
{5}
65 км {дождь, морось} ясно +21.6 +14.4 64 +25 +39 комфорт 1019.8 1005.8
13 13.08 З 1-2
{6}
70 км 8/8 1140 м
[]
+22.5 +13.7 57 +26 +29 жарко 1019.6 1005.6
14 13.08 Ю 2-4
{4}
50 км ясно +23.9 +13.0 50 +26 +36 жарко 1019.5 1005.6
15 13.08 С 1 70 км 8/8 1440 м
[]
+23.1 +12.7 52 +26 +28 жарко 1019.6 1005.6
16 13.08 З 3-4
{4}
60 км ясно +23.5 +11.8 48 +25 +28 комфорт 1019.6 1005.6
17 13.08 штиль 0-2
{3}
60 км ясно +24.8 +10.5 41 +26 +28 жарко 1019.5 1005.6
18 13.08 ЮЗ 1 70 км ясно +23.6 +13.1 52 +26 +26 жарко 1019.6 1005.7 +16.4 +25.2
19 13.08 СВ 2-2
{3}
40 км 5/5 1500 м
[]
+19.8 +13.5 67 +22 +22 комфорт 1020.2 1006.1
20 13.08 С 1-2
{3}
45 км 10/10 1500 м
[]
+19.5 +14.4 72 +22 +22 комфорт 1020.8 1006.7
21 13.08 СВ 1-2
{3}
30 км 10/10 1380 м
[]
+18.0 +15.1 83 +19 +19 1021.0 1006.8
22 13.08 С 1-2
{3}
25 км 3/3 1410 м
[]
+16.8 +14.8 88 +18 +18 1021.3 1007.0
23 13.08 С 1-2
{2}
20 км ясно +15.8 +14.6 93 +16 +16 1021.4 1007.1
00 14.08 СВ 1-2
{3}
24 км 3/3 1500 м
[]
+15.2 +14.3 94 +16 +16 1021.5 1007.1
01 14.08 СВ 1-2
{2}
15 км 3/3 1440 м
[]
+14.3 +14.0 98 +15 +15 1021.4 1007.0
02 14.08 С 1-2
{2}
17 км ясно +13.9 +13.6 98 +14 +14 1021.3 1006.9
03 14.08 С 1-2
{2}
8000 м 5/5 1500 м
[]
+13.2 +13.0 99 +13 +13 1021.1 1006.6
04 14.08 С 1-1
{1}
6000 м дымка 8/8 1440 м
[]
+13.0 +12.8 99 +13 +13 1021.2 1006.7
05 14.08 СВ 1-2
{3}
8000 м 8/8 1470 м
[]
+13.1 +13.0 99 +13 +13 1021.4 1006.9
06 14.08 СВ 1 22 км 8/0
[]
+15.0 +13.2 89 +15 +17 1021.3 1006.9 +12.8 +23.2
07 14.08 СВ 2-2
{3}
26 км 8/0 2000 м
[]
+16.0 +13.4 85 +16 +18 1021.2 1006.9
08 14.08 В 2-3
{3}
35 км 10/0 2000 м
[]
+18.8 +14.8 78 +20 +24 1020.9 1006.7
09 14.08 В 2 45 км 10/10 1500 м
[]
+20.7 +14.9 69 +24 +24 комфорт 1020.7 1006.6
10 14.08 ЮВ 2-3
{5}
45 км 10/10 1380 м
[]
+21.3 +15.5 70 +25 +25 комфорт 1020.6 1006.5
11 14.08 ЮВ 3-5
{7}
50 км 10/10 1500 м
[]
+23.7 +15.6 60 +27 +27 жарко 1020.0 1006.1
12 14.08 ЮВ 3 45 км 8/8 1500 м
[]
+24.0 +15.8 60 +27 +29 жарко 1019.6 1005.7
13 14.08 ЮВ 2-4
{5}
40 км 10/0 2000 м
[]
+25.4 +17.2 60 +29 +35 душно 1018.9 1005.1
14 14.08 ЮВ 3-6
{8}
55 км 10/10 1410 м
[]
+26.1 +16.0 54 +29 +29 жарко 1018.2 1004.4
15 14.08 ЮВ 3 50 км 10/10 1380 м
[]
+25.9 +15.5 53 +29 +29 душно 1017.8 1004.0
16 14.08 В 3-6
{6}
60 км 8/8 1500 м
[]
+25.8 +15.5 53 +29 +29 душно 1017.4 1003.6
17 14.08 ЮВ 2-4
{5}
65 км 3/3 1500 м
[]
+26.5 +16.1 53 +30 +31 душно 1016.9 1003.1
18 14.08 В 1 55 км 5/0
[]
+23.4 +17.1 68 +29 +29 душно 1016.9 1003.0 +15.1 +27.2
19 14.08 В 1-2
{2}
45 км 3/0
[]
+20.9 +17.4 80 +26 +26 душно 1017.1 1003.1
20 14.08 В 1-2
{2}
40 км ясно +19.1 +16.9 87 +22 +22 комфорт 1017.5 1003.4
21 14.08 Ю 1-1
{2}
30 км ?/? +18.1 +16.7 92 +19 +19 1017.6 1003.4
22 14.08 В 1-1
{2}
30 км ?/? +17.4 +16.6 95 +18 +18 1017.5 1003.3
23 14.08 СВ 1-1
{2}
29 км 8/0 2000 м
[]
+17.2 +16.5 96 +18 +18 1017.4 1003.2
00 15.08 штиль 0-1
{2}
25 км ?/? +16.4 +16.0 97 +16 +16 1017.1 1002.9
01 15.08 штиль 0-1
{1}
19 км ?/? +15.7 +15.4 98 +15 +15 1017.1 1002.8
02 15.08 Ю 1-1
{1}
16 км 3/0
[]
+15.2 +15.1 99 +16 +16 1017.1 1002.8
03 15.08 Ю 1 15 км 10/0
[]
+14.6 +14.4 99 +15 +15 1017.2 1002.9
04 15.08 штиль 0-1
{1}
14 км 10/0
[]
+14.4 +14.2 99 +14 +14 1017.3 1003.0
05 15.08 штиль 0-2
{4}
12 км в посл. час туман {дымка} 5/0
[]
+14.1 +14.0 99 +14 +14 1017.4 1003.0
06 15.08 штиль 0 20 км {туман, дымка} ясно +16.6 +14.5 87 +16 +19 1017.3 1003.1 +14.0 +23.6
07 15.08 ЮВ 2-3
{3}
40 км ясно +19.7 +15.6 77 +22 +26 комфорт 1016.7 1002.6
08 15.08 ЮВ 2-3
{4}
40 км 5/0
[]
+22.1 +15.8 67 +26 +31 душно 1016.9 1002.9
09 15.08 ЮВ 1 45 км 10/0
[]
+24.0 +16.6 63 +27 +33 жарко 1017.1 1003.2
10 15.08 Ю 1-2
{3}
50 км 10/0
[]
+25.7 +17.7 61 +30 +37 душно 1016.5 1002.7
11 15.08 ЮЗ 2-4
{5}
45 км 8/0
[]
+27.0 +16.5 53 +31 +39 душно 1016.2 1002.5
12 15.08 ЮЗ 2-4
{5}
50 км 3/0
[]
+28.1 +16.8 50 +32 +44 душно 1016.2 1002.5
13 15.08 ЮЗ 3-6
{6}
40 км 10/10 1500 м
[]
+25.9 +16.9 58 +30 +30 душно 1017.3 1003.5
14 15.08 ЮВ 2-3
{21}
35 км в посл. час дождь {ливн. осадки} 10/0 2000 м
[]
+18.3 +17.6 96 +19 +24 1017.4 1003.3
15 15.08 ЮВ 2-3
{21}
27 км слаб. дождь {ливн. осадки} 8/0
[]
+18.8 +17.6 93 +21 +25 комфорт 1017.7 1003.6 8
16 15.08 Ю 1-3
{5}
28 км слаб. дождь {морось} 8/0
[]
+19.5 +18.5 94 +23 +26 комфорт 1017.7 1003.6
17 15.08 В 1-2
{2}
11 км в посл. час дождь {морось} 10/0
[]
+19.6 +19.1 97 +23 +24 комфорт 1017.1 1003.0
18 15.08 штиль 0 6000 м в посл. час дождь {ливн. осадки} 8/0 2000 м
[]
+19.7 +19.3 98 +22 +23 комфорт 1017.2 1003.1 +16.6 +28.6 0.1
19 15.08 ЮВ 1-1
{1}
5000 м в посл. час дождь {дымка} 10/0
[]
+19.4 +19.2 99 +23 +23 комфорт 1017.7 1003.6
20 15.08 штиль 0-1
{2}
3500 м в посл. час дождь {дымка} 10/0
[]
+18.8 +18.7 99 +20 +20 1017.9 1003.8
21 15.08 штиль 0-1
{2}
3400 м в посл. час туман {дождь} 10/0
[]
+18.1 +18.1 100 +18 +18 1018.5 1004.3
22 15.08 штиль 0-1
{2}
3400 м в посл. час туман {дымка} 10/0
[]
+17.8 +17.8 100 +18 +18 1018.6 1004.4
23 15.08 Ю 1-1
{1}
4600 м слаб. дождь {туман} 10/0
[]
+17.7 +17.7 100 +19 +19 1019.1 1004.9
00 16.08 ЮЗ 2-4
{4}
9000 м слаб. дождь {морось} 8/8 1500 м
[]
+18.5 +18.0 97 +20 +20 1019.2 1005.1 0.6
01 16.08 ЮЗ 2-4
{5}
15 км в посл. час дождь {морось} 10/10 900 м
[]
+18.6 +18.1 97 +20 +20 1019.4 1005.3
02 16.08 ЮЗ 3-6
{6}
24 км в посл. час дождь {морось} 10/10 1500 м
[]
+18.2 +17.5 96 +19 +19 1019.6 1005.4
03 16.08 Ю 1 12 км {дождь, морось} 10/0
[]
+17.2 +16.7 97 +18 +18 1020.3 1006.1 0.5
04 16.08 ЮЗ 2-3
{4}
17 км 5/0
[]
+16.7 +16.3 97 +17 +17 1020.5 1006.2
05 16.08 ЮЗ 1-2
{4}
15 км 3/0
[]
+16.5 +16.0 97 +17 +17 1021.3 1007.0
06 16.08 ЮЗ 1 18 км {дождь, морось} 3/0 2000 м
[]
+18.0 +16.5 91 +19 +21 1021.4 1007.2 +16.5 +19.7
07 16.08 ЮЗ 1-2
{3}
30 км 5/5 210 м
[]
+19.1 +16.6 85 +22 +24 комфорт 1021.6 1007.4
08 16.08 Ю 1-2
{2}
27 км 8/8 270 м
[]
+19.9 +17.5 86 +24 +25 комфорт 1021.9 1007.8
09 16.08 В 1 21 км 5/5 930 м
[]
+21.0 +16.5 75 +26 +32 душно 1022.1 1008.0
10 16.08 ЮЗ 1-2
{3}
24 км 3/3 540 м
[]
+22.4 +16.5 69 +27 +37 душно 1021.8 1007.8
11 16.08 Ю 2-3
{3}
28 км 10/10 840 м
[]
+23.7 +15.4 60 +27 +27 жарко 1021.2 1007.3
12 16.08 С 2-3
{4}
35 км 8/8 1000 м
[]
+23.1 +14.7 59 +27 +30 душно 1021.1 1007.1
13 16.08 ЮВ 2-3
{4}
40 км 8/8 1440 м
[]
+23.9 +15.1 58 +27 +29 жарко 1020.6 1006.7
14 16.08 СВ 2-4
{4}
35 км 8/8 1230 м
[]
+24.6 +15.0 55 +27 +29 жарко 1020.4 1006.5
15 16.08 СВ 1 40 км 10/0
[]
+24.7 +14.8 54 +27 +31 жарко 1020.2 1006.3
16 16.08 В 2-3
{4}
40 км 10/0
[]
+24.4 +15.2 56 +27 +29 жарко 1019.9 1006.0
17 16.08 СВ 1-2
{3}
40 км 10/0
[]
+23.9 +15.8 60 +27 +28 жарко 1019.6 1005.7
18 16.08 СВ 1 45 км 10/0
[]
+23.7 +15.8 61 +27 +27 жарко 1019.5 1005.6 +17.7 +25.4
19 16.08 В 1-2
{2}
30 км 8/0
[]
+20.1 +16.1 78 +24 +24 комфорт 1019.9 1005.8
20 16.08 В 1-1
{2}
27 км 8/0
[]
+18.4 +16.0 86 +20 +20 1020.2 1006.0
21 16.08 Ю 1-1
{2}
19 км ясно +17.5 +16.3 93 +19 +19 1020.2 1006.0
22 16.08 штиль 0
{1}
11 км 5/5 1470 м
[]
+16.8 +16.3 97 +17 +17 1020.1 1005.8
23 16.08 штиль 0-1
{2}
9000 м ясно +16.4 +16.2 99 +16 +16 1019.4 1005.1
00 17.08 штиль 0-1
{2}
10 км 8/0
[]
+16.7 +16.4 98 +17 +17 1019.0 1004.8
01 17.08 штиль 0-1
{1}
6000 м дымка 8/8 1500 м
[]
+16.2 +15.9 98 +16 +16 1019.1 1004.8
02 17.08 штиль 0-1
{1}
5000 м дымка 3/3 1440 м
[]
+16.2 +16.0 99 +16 +16 1018.8 1004.5
03 17.08 ЮВ 1-1
{2}
8000 м в посл. час туман {дымка} 5/0
[]
+15.9 +15.7 99 +17 +17 1018.3 1004.0
04 17.08 штиль 0-1
{1}
7000 м дымка 10/10 1350 м
[]
+15.3 +15.2 99 +15 +15 1018.3 1004.0
05 17.08 ЮВ 1-1
{3}
5000 м дымка 8/8 1500 м
[]
+15.3 +15.2 99 +16 +16 1018.6 1004.3
06 17.08 В 1 14 км {туман, дымка} н/о +17.2 +15.7 91 +18 +18 1018.5 1004.3 +15.2 +23.7
07 17.08 ЮВ 2-3
{3}
25 км 8/8 1110 м
[]
+19.0 +16.6 86 +21 +22 комфорт 1018.3 1004.2
08 17.08 ЮЗ 1-2
{3}
30 км 10/0
[]
+21.4 +17.1 76 +25 +29 комфорт 1018.0 1004.0
09 17.08 ЮЗ 2 29 км 10/10 1140 м
[]
+23.2 +17.4 70 +29 +29 душно 1018.1 1004.2
10 17.08 ЮЗ 2-4
{5}
23 км 10/0
[]
+23.6 +18.2 72 +28 +34 душно 1017.8 1003.9
11 17.08 ЮЗ 2-4
{5}
23 км 10/10 750 м
[]
+24.9 +18.4 67 +29 +29 душно 1017.3 1003.5
12 17.08 ЮЗ 4-6
{7}
35 км в посл. час морось 10/0
[]
+25.3 +17.1 60 +29 +34 душно 1016.8 1003.0
13 17.08 ЮЗ 3-5
{7}
40 км 8/8 1500 м
[]
+26.6 +18.1 60 +31 +33 душно 1016.3 1002.6
14 17.08 ЮЗ 3-8
{10}
70 км 10/0
[]
+26.8 +16.1 52 +30 +34 душно 1015.9 1002.2
15 17.08 ЮЗ 4 65 км 10/10 1500 м
[]
+26.1 +15.7 53 +29 +29 жарко 1016.2 1002.4
16 17.08 З 3-5
{8}
70 км в посл. час дождь 10/0
[]
+24.8 +14.4 52 +27 +29 жарко 1016.3 1002.5
17 17.08 ЮЗ 3-5
{9}
70 км 10/0 2000 м
[]
+23.7 +15.0 58 +27 +27 жарко 1016.4 1002.5
18 17.08 ЮЗ 4 70 км в посл. час дождь {морось} 10/0 2000 м
[]
+23.1 +15.1 61 +27 +27 душно 1016.6 1002.7 +17.3 +27.6
19 17.08 З 2-4
{6}
70 км 10/10 1500 м
[]
+22.3 +15.4 65 +26 +26 жарко 1016.5 1002.6
20 17.08 З 3-6
{6}
70 км в посл. час дождь 10/10 1500 м
[]
+22.5 +15.6 65 +26 +26 жарко 1016.9 1003.0
21 17.08 штиль 0-1
{6}
70 км {дождь, дымка} 10/0
[]
+20.4 +16.7 79 +23 +23 комфорт 1016.8 1002.8
22 17.08 штиль 0-1
{1}
65 км 10/0 2000 м
[]
+19.6 +16.6 83 +22 +22 комфорт 1016.9 1002.8
23 17.08 ЮВ 2-3
{3}
70 км 10/0
[]
+19.8 +16.4 81 +23 +23 комфорт 1016.8 1002.7
00 18.08 ЮВ 2 55 км {дождь, дымка} 10/0
[]
+18.9 +16.4 85 +21 +21 комфорт 1016.5 1002.4
01 18.08 ЮВ 2-2
{4}
50 км 10/0 2000 м
[]
+18.4 +16.4 88 +20 +20 1016.1 1002.0
02 18.08 ЮВ 2-3
{3}
45 км 10/0
[]
+18.5 +16.1 86 +20 +20 1015.9 1001.8
03 18.08 Ю 1 35 км 10/0
[]
+17.9 +16.6 92 +19 +19 1015.7 1001.6
04 18.08 ЮВ 1-2
{2}
27 км 10/0
[]
+16.8 +16.2 96 +18 +18 1015.6 1001.4
05 18.08 Ю 1-2
{2}
30 км 10/0
[]
+17.1 +16.1 94 +18 +18 1015.3 1001.1
06 18.08 ЮВ 1 35 км 10/10 1500 м
[]
+18.1 +16.8 92 +19 +19 1015.0 1000.9 +16.6 +23.0

 

Местоположение метеостанции Offenbach Wetterpark (Германия): широта 50.08 долгота 8.78 высота над уровнем моря 119 м.

В архиве по умолчанию представлена погода в Offenbach Wetterpark за последнюю неделю. Архивные данные за месяц целиком и за предыдущие месяцы, начиная с января 2011 года, Вы можете получить, выбрав интересующий диапазон дат из раскрывающегося списка и нажав кнопку "Ввод!".

Внимание! Время в таблицах - всемирное. Для получения местного времени необходимо прибавить поправку, которая в Offenbach Wetterpark равна 1 ч.

Смотрите также архив погоды в соседних городах и на ближайших метеорологических станциях:

Погода в Frankfurt (Германия) (13 км)
Погода в Kleiner Feldberg (Германия) (28 км)
Погода в Michelstadt (Германия) (46 км)
Погода в Neuhuetten / Spessart (Германия) (46 км)
Погода в Giessen (Германия) (56 км)
Погода в Hoherodskopf-Vogelsberg (Германия) (58 км)
Погода в Geisenheim (Германия) (60 км)
Погода в Mannheim (Германия) (64 км)
Погода в Neu-Ulrichstein (Германия) (76 км)
Погода в Waibstadt (Германия) (87 км)

Пояснения к столбцам:

Ветер - указаны скорость ветра в м/с - средняя за 10 мин, порывы в срок и между сроками (в фигурных скобках) и направление, откуда дует ветер: С - северный, СВ - северо-восточный, В - восточный, ЮВ - юго-восточный, Ю - южный, ЮЗ - юго-западный, З - западный, СЗ - северо-западный.
Видимость - горизонтальная дальность видимости в метрах или километрах. При видимости от 1 до 10 км при отсутствии осадков обычно наблюдается дымка, при ухудшении видимости до 1 км и менее - туман. В сухую погоду видимость может ухудшаться дымом, пылью или мглою.
Явления - указаны атмосферные явления, наблюдавшиеся в срок или в последний час перед сроком; фигурными скобками обозначены явления, наблюдавшиеся между сроками (за 1-3 часа до срока); квадратными скобками обозначены град или гололедные отложения с указанием их диаметра в мм.
Облачность - указаны через наклонную черту общая и нижняя облачность в баллах и высота нижней границы облаков в метрах; квадратными скобками обозначены формы облаков: Ci - перистые, Cs - перисто-слоистые, Cc - перисто-кучевые, Ac - высококучевые, As - высокослоистые, Sc - слоисто-кучевые, Ns - слоисто-дождевые, Cu - кучевые, Cb - кучево-дождевые. Подробнее классификацию облаков см. в Атласе облаков (PDF).
T - Температура воздуха - температура, измеренная на высоте 2 м над землей.
Td - Температура точки росы - температура, при понижении до которой содержащийся в воздухе водяной пар достигнет насыщения.
f - Относительная влажность воздуха - влажноcть воздуха, измеренная на высоте 2 м над землей.
Te - Эффективная температура - температура, которую ощущает одетый по сезону человек в тени. Характеристика душности погоды. При расчете учитывается влияние влажности воздуха и скорости ветра на теплоощущения человека.
Tes - Эффективная температура на солнце - температура, которую ощущает человек, с поправкой на солнечный нагрев. Характеристика знойности погоды. Зависит от высоты солнца над горизонтом, облачности и скорости ветра. Ночью, в пасмурную погоду, а также при ветре 12 м/с и более поправка равна нулю.
P - Атмосферное давление - приведенное к уровню моря атмосферное давление.
Po - Атмосферное давление - измеренное на уровне метеостанции атмосферное давление.
Tmin - Минимальная температура - минимум температуры воздуха на высоте 2 м над землей.
Tmax - Максимальная температура - максимум температуры воздуха на высоте 2 м над землей.
R - Количество осадков - Количество выпавших осадков за период времени, мм. При наведении курсора мыши на число - период времени, за который выпало указанное количество осадков.
R24 - Количество осадков - Количество выпавших осадков за 24 часа, мм.
S - Снежный покров - Высота снежного покрова, см. При наведении курсора мыши на число - состояние снежного покрова и степень покрытия местности в баллах.